Home   Weather   Lausanne   Past weeks

Flag for Switzerland Past Weather in Lausanne, Vaud, Switzerland — Yesterday and Last 2 Weeks

Now
37 °F

Chilly.


Feels Like: 37 °F
Forecast: 38 / 56 °F
Wind: 1 mph from Southwest

Location: Aigle

Current Time: Feb 27, 2017 at 12:55:06 am

Latest Report: Feb 27, 2017 at 12:00 am


Visibility: N/A

Pressure: 30.05 "Hg

Humidity: 87%

Dew Point: 33 °F

Location of LausanneLocation

Past Weather in Lausanne — Graph

°F

Lausanne Temperature Yesterday

Maximum temperature yesterday: 54 °F (at 2:00 pm)
Minimum temperature yesterday: 32 °F (at 2:00 am)
Average temperature yesterday: 41 °F

High & Low Weather Summary for the Past Weeks

 TemperatureHumidityPressure
High64 °F (Feb 23, 4:00 pm)100% (Feb 17, 10:00 pm)30.65 "Hg (Feb 17, 10:00 pm)
Low29 °F (Feb 19, 4:00 am)32% (Feb 23, 6:00 pm)29.72 "Hg (Feb 23, 4:00 pm)
Average41 °F78%30.26 "Hg
* Reported Feb 11 11:00 pm — Feb 26 11:00 pm, Lausanne, Weather by CustomWeather, © 2017

Note: Actual official high and low records may vary slightly from our data, if they occured in-between our weather recording intervals... More about our weather records

Advertising

Lausanne Weather History for the Previous 24 Hours

Scroll right to see more
 ConditionsComfort  
Time TempWeatherWind HumidityBarometerVisibility
11:00 pm
Sun, Feb 26
41 °FQuite cool.1 mph76%30.04 "HgN/A
10:00 pm42 °FQuite cool.1 mph81%30.05 "HgN/A
9:00 pm44 °FQuite cool.1 mph75%30.05 "HgN/A
8:00 pm44 °FQuite cool.3 mph82%30.05 "HgN/A
7:00 pm48 °FPassing clouds.3 mph59%30.04 "Hg19 mi
6:00 pm50 °FCool.5 mph57%30.03 "HgN/A
5:00 pm50 °FCool.No wind54%30.03 "HgN/A
4:00 pm50 °FOvercast.5 mph55%30.04 "Hg16 mi
3:00 pm49 °FCool.7 mph57%30.05 "HgN/A
2:00 pm54 °FCool.3 mph35%30.05 "HgN/A
1:00 pm50 °FPartly sunny.3 mph44%30.10 "Hg19 mi
12:00 pm47 °FCool.1 mph47%30.15 "HgN/A
11:00 am43 °FQuite cool.2 mph56%30.17 "HgN/A
10:00 am40 °FPartly sunny.No wind69%30.18 "Hg17 mi
9:00 am36 °FChilly.5 mph79%30.18 "HgN/A
8:00 am33 °FChilly.2 mph85%30.19 "HgN/A
7:00 am33 °FClear.5 mph80%30.17 "Hg16 mi
6:00 am33 °FChilly.5 mph84%30.17 "HgN/A
5:00 am33 °FChilly.3 mph90%30.19 "HgN/A
4:00 am35 °FPassing clouds.6 mph81%30.18 "Hg11 mi
3:00 am33 °FChilly.3 mph90%30.20 "HgN/A
2:00 am32 °FChilly.2 mph92%30.20 "HgN/A
1:00 am32 °FChilly.1 mph93%30.19 "HgN/A
12:00 am34 °FChilly.2 mph87%30.19 "HgN/A
Weather by CustomWeather, © 2017

See weather overviewHow to use our weather pages